DW0495 Weather Reports


time (UTC)temp
C
wind
direction
speed
KPH
gust
KPH
rain 1hr
cm
rain 24hr
cm
rain mn
cm
humidity
%
barometer
mb
20260906233512 26 138 0.0 0.0 0.00 0.00 0.00 20 1012.4
20260906232143 26 130 0.0 0.0 0.00 0.00 0.00 20 1012.1
20260906232138 26 130 0.0 0.0 0.00 0.00 0.00 22 1012.0
20260906225724 26 143 0.0 0.0 0.00 0.00 0.00 19 1012.0
20260906224314 26 128 0.0 0.0 0.00 0.00 0.00 19 1012.1
20260906222226 27 161 0.0 0.0 0.00 0.00 0.00 19 1012.3
20260906221228 27 134 0.0 0.0 0.00 0.00 0.00 18 1012.4
20260906220611 27 122 0.0 1.6 0.00 0.00 0.00 18 1012.5
20260906215111 27 121 0.0 0.0 0.00 0.00 0.00 19 1012.5
20260906213801 27 151 0.0 3.2 0.00 0.00 0.00 20 1012.5
20260906212802 27 111 0.0 1.6 0.00 0.00 0.00 18 1012.6
20260906211800 28 97 0.0 0.0 0.00 0.00 0.00 20 1012.8
20260906210430 28 119 0.0 4.8 0.00 0.00 0.00 20 1013.1
20260906205431 28 165 0.0 11.3 0.00 0.00 0.00 22 1013.4
20260906204431 28 139 0.0 0.0 0.00 0.00 0.00 21 1013.5
20260906202910 28 149 0.0 11.3 0.00 0.00 0.00 22 1013.5
20260906202412 28 108 0.0 9.7 0.00 0.00 0.00 20 1013.4
20260906200912 29 128 0.0 0.0 0.00 0.00 0.00 18 1013.5
20260906195344 28 101 0.0 0.0 0.00 0.00 0.00 22 1013.6
20260906194850 28 101 0.0 0.0 0.00 0.00 0.00 24 1013.8
20260906193124 28 144 0.0 1.6 0.00 0.00 0.00 23 1014.0
20260906192122 27 144 0.0 0.0 0.00 0.00 0.00 27 1014.1
20260906191123 27 143 0.0 0.0 0.00 0.00 0.00 28 1014.3
20260906190122 26 143 0.0 0.0 0.00 0.00 0.00 27 1014.7
20260906185122 26 143 0.0 0.0 0.00 0.00 0.00 27 1014.9
20260906184124 26 143 0.0 0.0 0.00 0.00 0.00 32 1015.0
20260906182520 26 143 0.0 0.0 0.00 0.00 0.00 35 1015.1
20260906181350 26 143 0.0 0.0 0.00 0.00 0.00 34 1015.5
20260906180854 25 143 0.0 0.0 0.00 0.00 0.00 35 1015.6
20260906174926 25 143 0.0 0.0 0.00 0.00 0.00 35 1015.9
20260906173925 24 143 0.0 0.0 0.00 0.00 0.00 38 1016.1
20260906173428 23 143 0.0 0.0 0.00 0.00 0.00 37 1016.3
20260906171926 23 144 0.0 0.0 0.00 0.00 0.00 38 1016.3
20260906170926 23 143 0.0 0.0 0.00 0.00 0.00 42 1016.4
20260906165926 22 143 0.0 0.0 0.00 0.00 0.00 42 1016.4
20260906164926 22 143 0.0 0.0 0.00 0.00 0.00 40 1016.5
20260906163927 21 143 0.0 0.0 0.00 0.00 0.00 46 1016.6
20260906162210 20 143 0.0 0.0 0.00 0.00 0.00 45 1016.6
20260906161713 20 143 0.0 0.0 0.00 0.00 0.00 44 1016.7
20260906160008 19 143 0.0 0.0 0.00 0.00 0.00 46 1017.0
20260906155009 19 143 0.0 0.0 0.00 0.00 0.00 48 1017.1
20260906154007 18 143 0.0 0.0 0.00 0.00 0.00 50 1017.2
20260906152704 17 143 0.0 0.0 0.00 0.00 0.00 52 1017.2
20260906152204 17 143 0.0 0.0 0.00 0.00 0.00 52 1017.2
20260906150701 16 143 0.0 0.0 0.00 0.00 0.00 54 1017.2
20260906145324 15 143 0.0 0.0 0.00 0.00 0.00 61 1017.3
20260906144323 13 143 0.0 0.0 0.00 0.00 0.00 65 1017.3
20260906143323 12 143 0.0 0.0 0.00 0.00 0.00 70 1017.3
20260906141606 10 143 0.0 0.0 0.00 0.00 0.00 80 1017.2
20260906140605 10 143 0.0 0.0 0.00 0.00 0.00 77 1017.2
20260906135605 9 144 0.0 0.0 0.00 0.00 0.00 76 1017.1
20260906134606 9 143 0.0 0.0 0.00 0.00 0.00 75 1017.0
20260906133605 9 143 0.0 0.0 0.00 0.00 0.00 74 1017.0
20260906132350 10 143 0.0 0.0 0.00 0.00 0.00 72 1016.6
20260906130849 10 143 0.0 0.0 0.00 0.00 0.00 72 1016.6
20260906125849 10 143 0.0 0.0 0.00 0.00 0.00 71 1016.6
20260906124847 10 143 0.0 0.0 0.00 0.00 0.00 70 1016.4
20260906122959 11 143 0.0 0.0 0.00 0.00 0.00 69 1016.3
20260906121955 11 143 0.0 0.0 0.00 0.00 0.00 68 1016.2
20260906120956 11 143 0.0 0.0 0.00 0.00 0.00 67 1016.3
20260906115958 11 143 0.0 0.0 0.00 0.00 0.00 67 1016.3
20260906115227 12 143 0.0 0.0 0.00 0.00 0.00 66 1016.2
20260906113725 12 143 0.0 0.0 0.00 0.00 0.00 65 1016.2
20260906112728 12 143 0.0 0.0 0.00 0.00 0.00 65 1016.1
20260906111730 12 143 0.0 0.0 0.00 0.00 0.00 64 1015.9
20260906111726 12 143 0.0 0.0 0.00 0.00 0.00 64 1015.9
20260906105728 12 143 0.0 0.0 0.00 0.00 0.00 63 1015.9
20260906104557 12 143 0.0 0.0 0.00 0.00 0.00 63 1015.8
20260906103058 13 143 0.0 0.0 0.00 0.00 0.00 62 1015.7
20260906101931 13 143 0.0 0.0 0.00 0.00 0.00 62 1015.6
20260906100934 13 143 0.0 0.0 0.00 0.00 0.00 62 1015.6
20260906100435 13 143 0.0 0.0 0.00 0.00 0.00 62 1015.6
20260906094823 13 143 0.0 0.0 0.00 0.00 0.00 63 1015.4
20260906093824 13 143 0.0 0.0 0.00 0.00 0.00 63 1015.0
20260906092821 13 143 0.0 0.0 0.00 0.00 0.00 62 1014.9
20260906091821 12 143 0.0 0.0 0.00 0.00 0.00 61 1014.7
20260906090333 12 143 0.0 0.0 0.00 0.00 0.00 57 1014.4
20260906085331 12 143 0.0 0.0 0.00 0.00 0.00 54 1014.3
20260906084330 13 143 0.0 0.0 0.00 0.00 0.00 56 1014.2
20260906083328 13 143 0.0 0.0 0.00 0.00 0.00 54 1013.9
20260906082027 13 143 0.0 0.0 0.00 0.00 0.00 53 1013.9
20260906081025 13 143 0.0 0.0 0.00 0.00 0.00 52 1014.0
20260906080024 13 143 0.0 0.0 0.00 0.00 0.00 51 1014.1
20260906075526 13 143 0.0 0.0 0.00 0.00 0.00 50 1014.1
20260906073826 14 143 0.0 0.0 0.00 0.00 0.00 50 1013.9
20260906072825 14 143 0.0 0.0 0.00 0.00 0.00 50 1013.8
20260906071825 14 143 0.0 0.0 0.00 0.00 0.00 49 1013.8
20260906070028 13 143 0.0 0.0 0.00 0.00 0.00 45 1013.8
20260906065526 13 143 0.0 0.0 0.00 0.00 0.00 49 1013.9
20260906064027 13 143 0.0 0.0 0.00 0.00 0.00 48 1013.9
20260906062746 13 143 0.0 0.0 0.00 0.00 0.00 46 1014.0
20260906062245 13 143 0.0 0.0 0.00 0.00 0.00 48 1014.2
20260906060745 13 143 0.0 0.0 0.00 0.00 0.00 49 1014.1
20260906055743 14 143 0.0 0.0 0.00 0.00 0.00 50 1014.3
20260906054033 14 143 0.0 0.0 0.00 0.00 0.00 53 1014.7
20260906052258 15 143 0.0 0.0 0.00 0.00 0.00 53 1014.8
20260906051258 15 143 0.0 0.0 0.00 0.00 0.00 53 1014.9
20260906050258 15 143 0.0 0.0 0.00 0.00 0.00 53 1015.1
20260906044513 15 143 0.0 0.0 0.00 0.00 0.00 52 1015.3
20260906043513 15 143 0.0 0.0 0.00 0.00 0.00 52 1015.4
20260906042513 16 143 0.0 0.0 0.00 0.00 0.00 53 1015.5
20260906041211 16 143 0.0 0.0 0.00 0.00 0.00 52 1015.5
20260906040209 16 143 0.0 0.0 0.00 0.00 0.00 52 1015.5
20260906035211 16 143 0.0 0.0 0.00 0.00 0.00 51 1015.6
20260906033747 17 143 0.0 0.0 0.00 0.00 0.00 50 1015.7
20260906032644 17 143 0.0 0.0 0.00 0.00 0.00 49 1015.7
20260906031631 17 143 0.0 0.0 0.00 0.00 0.00 48 1015.7
20260906030655 18 143 0.0 0.0 0.00 0.00 0.00 47 1015.6
20260906025154 18 143 0.0 0.0 0.00 0.00 0.00 45 1015.5
20260906024654 19 143 0.0 0.0 0.00 0.00 0.00 45 1015.4
20260906023155 20 143 0.0 0.0 0.00 0.00 0.00 43 1015.1
20260906021727 20 143 0.0 0.0 0.00 0.00 0.00 40 1015.1
20260906020727 21 143 0.0 0.0 0.00 0.00 0.00 38 1015.1
20260906015728 22 143 0.0 0.0 0.00 0.00 0.00 36 1015.0
20260906013915 23 143 0.0 0.0 0.00 0.00 0.00 33 1015.1
20260906012915 23 143 0.0 0.0 0.00 0.00 0.00 31 1015.1
20260906011916 24 143 0.0 0.0 0.00 0.00 0.00 30 1015.3
20260906010303 24 143 0.0 0.0 0.00 0.00 0.00 26 1015.3
20260906005306 25 143 0.0 0.0 0.00 0.00 0.00 28 1015.1
20260906004304 25 143 0.0 0.0 0.00 0.00 0.00 28 1015.1
20260906002431 25 143 0.0 0.0 0.00 0.00 0.00 26 1015.0
20260906001935 25 143 0.0 0.0 0.00 0.00 0.00 26 1015.0
20260905235911 26 143 0.0 0.0 0.00 0.00 0.00 26 1015.1
20260905234912 25 143 0.0 0.0 0.00 0.00 0.00 28 1015.1